Flag for Germany Weather past 2 weeks in Düren, North Rhine-Westphalia, Germany

Now
34 °F

Chilly.


Feels Like: 34 °F
Forecast: 36 / 61 °F
Wind: 2 mph from Southwest

Location: Noervenich

Current Time: Apr 19, 2015 at 7:42:22 AM

Latest Report: Apr 19, 2015 at 6:20 AM


Visibility: 3 mi

Pressure: 30.18 "Hg

Humidity: 87%

Dew point: 30 °F

Location of DürenLocation

Historic Weather in Düren — Graph

°F

Düren temperature yesterday

Maximum temperature yesterday: 57 °F (at 4:20 PM)
Minimum temperature yesterday: 36 °F (at 6:20 AM)
Average temperature yesterday: 47 °F

Past Weeks' High & Low Weather Summary

 TemperatureHumidityPressure
High75 °F (Apr 15, 2:20 PM)100% (Apr 7, 1:20 AM)30.63 "Hg (Apr 7, 1:20 AM)
Low30 °F (Apr 7, 3:20 AM)23% (Apr 10, 6:20 PM)29.92 "Hg (Apr 15, 7:20 PM)
Average50 °F65%30.25 "Hg
* Reported Apr 4 6:20 AM — Apr 19 6:20 AM, Düren, Weather by CustomWeather, © 2015

Note: Actual official high and low records may vary slightly from our data, if they occured in-between our weather recording intervals... More about our weather records

Advertising

Düren weather history for previous 24 hours

 ConditionsComfort  
Time TempWeatherWind HumidityBarometerVisibility
6:20 AM
Sun, Apr 19
34 °FChilly.2 mph87%30.18 "Hg3 mi
5:20 AM36 °FChilly.1 mph81%30.18 "Hg3 mi
4:20 AM39 °FChilly.1 mph70%30.18 "Hg3 mi
3:20 AM37 °FChilly.No wind75%30.21 "Hg3 mi
2:20 AM36 °FChilly.2 mph75%30.24 "Hg3 mi
1:20 AM39 °FChilly.1 mph70%30.24 "Hg5 mi
12:20 AM43 °FQuite cool.No wind61%30.24 "Hg3 mi
11:20 PM
Sat, Apr 18
46 °FCool.1 mph53%30.27 "Hg3 mi
10:20 PM48 °FCool.1 mph50%30.24 "Hg3 mi
9:20 PM48 °FCool.3 mph50%30.24 "Hg4 mi
8:20 PM52 °FCool.3 mph44%30.24 "Hg4 mi
7:20 PM55 °FPassing clouds.7 mph38%30.24 "HgN/A
6:20 PM55 °FPassing clouds.7 mph38%30.24 "HgN/A
5:20 PM57 °FPassing clouds.5 mph33%30.24 "HgN/A
4:20 PM57 °FPassing clouds.8 mph36%30.27 "HgN/A
3:20 PM55 °FScattered clouds.5 mph36%30.30 "HgN/A
2:20 PM55 °FScattered clouds.7 mph38%30.30 "HgN/A
1:20 PM54 °FScattered clouds.7 mph38%30.30 "HgN/A
12:20 PM52 °FScattered clouds.8 mph44%30.30 "HgN/A
11:20 AM52 °FCool.9 mph44%30.30 "Hg5 mi
10:20 AM48 °FCool.3 mph62%30.30 "Hg5 mi
9:20 AM45 °FQuite cool.1 mph66%30.30 "Hg5 mi
8:20 AM41 °FQuite cool.2 mph76%30.30 "Hg4 mi
7:20 AM37 °FChilly.2 mph81%30.27 "Hg4 mi
Weather by CustomWeather, © 2015

See weather overviewHow to use our weather pages